"TOA5","AWS1","CR1000","7964","CR1000.Std.14","CPU:AWS1_114.CR1","64363","TBL110"
"TIMESTAMP","RECORD","Wind_spd_WVc(1)","Wind_spd_WVc(2)","Air_Temp_Avg","Humidity_Avg","SW_upper_Wm2_Avg","Rain_Tot","Press_Avg","Issui_Tot","Depth_cm","SR50A_Raw","Quality","Ground_Temp_Avg(1)","Ground_Temp_Avg(2)","SW_lower_Wm2_Avg","Albedo_Avg","SWC_per(1)","SWC_per(2)","Period(1)","Period(2)"
"TS","RN","","","","","","","","","","","","","","","","","","",""
"","","WVc","WVc","Avg","Avg","Avg","Tot","Avg","Tot","Smp","Smp","Smp","Avg","Avg","Avg","Avg","Smp","Smp","Smp","Smp"
"2017-06-05 00:00:00",291085,0.298,187.4,3.468,100,0,0,863.4675,0,318,0,0,13.54,13.32,0.5043533,0,50.11,57.97,33.33,35.21
"2017-06-05 00:10:00",291086,0.091,184.3,3.494,100,0,0,863.4534,0,-36.76,3.525,361,13.46,13.31,0.6067408,0,50.17,57.97,33.34,35.21
"2017-06-05 00:20:00",291087,0.036,167.7,3.391,100,0,0,863.5264,0,318,0,0,13.45,13.31,0.580196,0,50.17,57.91,33.34,35.2
"2017-06-05 00:30:00",291088,0.204,151.5,3.208,100,0,0,863.4761,0,318,0,0,13.4,13.28,0.4626399,0,50.17,57.91,33.34,35.2
"2017-06-05 00:40:00",291089,0.206,168.6,3.195,100,0,0,863.455,0,-2.571,3.186,243,13.39,13.26,0.5915723,0,50.11,57.91,33.33,35.2
"2017-06-05 00:50:00",291090,0,0,3.615,100,0,0,863.2969,0,-3.325,3.191,220,13.35,13.25,1.069381,0,50.17,57.91,33.34,35.2
"2017-06-05 01:00:00",291091,0.069,141.2,4.027,99.7,0,0,863.299,0,-4.232,3.198,216,13.31,13.25,1.38792,0,50.17,57.91,33.34,35.2
"2017-06-05 01:10:00",291092,0.033,130.4,4.068,92.1,0,0,863.299,0,-4.685,3.205,214,13.25,13.26,1.296909,0,50.17,57.91,33.34,35.2
"2017-06-05 01:20:00",291093,0.156,175.4,3.554,98,0,0,863.2949,0,-4.257,3.202,212,13.22,13.28,0.6901677,0,50.17,57.91,33.34,35.2
"2017-06-05 01:30:00",291094,0.186,192.8,3.495,100,0,0,863.4171,0,-4.835,3.208,199,13.2,13.29,0.7318811,0,50.11,57.91,33.33,35.2
"2017-06-05 01:40:00",291095,0.025,192.5,3.367,100,0,0,863.4382,0,-3.854,3.198,212,13.12,13.26,0.7546339,0,50.11,57.91,33.33,35.2
"2017-06-05 01:50:00",291096,0.474,24.26,4.649,81.9,0,0,863.299,0,-4.907,3.195,196,13.13,13.25,2.559688,0,50.17,57.91,33.34,35.2
"2017-06-05 02:00:00",291097,0.71,30.63,6.185,65.97,0,0,863.4086,0,-4.98,3.193,224,13.07,13.25,3.109547,0,50.17,57.91,33.34,35.2
"2017-06-05 02:10:00",291098,0.706,24.7,5.941,66.37,0,0,863.3054,0,-3.87,3.183,207,13.08,13.27,1.831599,0,50.11,57.91,33.33,35.2
"2017-06-05 02:20:00",291099,0.462,21.29,6.384,63.54,0,0,863.3096,0,-4.172,3.185,206,13.04,13.28,1.543397,0,50.17,57.86,33.34,35.18
"2017-06-05 02:30:00",291100,0.3,6.513,6.416,61.68,0,0,863.4044,0,-4.144,3.183,216,12.99,13.27,1.073173,0,50.17,57.86,33.34,35.18
"2017-06-05 02:40:00",291101,0.35,37.84,6.135,63.01,0,0,863.3386,0,-3.793,3.182,227,12.94,13.24,0.2730334,0,50.17,57.86,33.34,35.18
"2017-06-05 02:50:00",291102,0.313,271.4,6.674,59.66,0,0,863.2526,0,-0.268,3.143,277,12.91,13.22,0.8001395,0,50.17,57.86,33.34,35.18
"2017-06-05 03:00:00",291103,0.302,161.5,6.574,60.23,0,0,863.243,0,-3.714,3.179,220,12.91,13.2,0.1478931,0,50.17,57.86,33.34,35.18
"2017-06-05 03:10:00",291104,0.357,169.3,6.523,61.6,0,0,863.2209,0,-2.356,3.17,248,12.9,13.21,0.3450838,0,50.11,57.86,33.33,35.18
"2017-06-05 03:20:00",291105,0.273,143.6,6.393,60.76,0,0,863.2074,0,-2.338,3.162,234,12.82,13.21,0.5839803,0,50.17,57.86,33.34,35.18
"2017-06-05 03:30:00",291106,0.212,94.9,7.048,57.86,0,0,863.1857,0,-2.754,3.171,236,12.78,13.21,0.6787835,0,50.17,57.86,33.34,35.18
"2017-06-05 03:40:00",291107,0.131,121.1,6.444,60.58,0,0,863.2013,0,-1.025,3.152,284,12.76,13.24,0.07583944,0,50.11,57.86,33.33,35.18
"2017-06-05 03:50:00",291108,0.214,119,6.116,63.06,0,0,863.1963,0,1.998,3.126,306,12.72,13.23,0.04550373,0,50.17,57.86,33.34,35.18
"2017-06-05 04:00:00",291109,0.217,132.7,6.308,60.88,0,0,863.1982,0,1.452,3.13,295,12.71,13.19,0.3109389,0,50.17,57.86,33.34,35.18
"2017-06-05 04:10:00",291110,0.129,166.3,6.097,62.56,0,0,863.2783,0,3.481,3.11,338,12.72,13.14,0.2237152,0,50.17,57.86,33.34,35.18
"2017-06-05 04:20:00",291111,0.357,324.9,5.789,68.63,0,0,863.4531,0,2.706,3.124,345,12.61,13.12,0.2199161,0,50.11,57.86,33.33,35.18
"2017-06-05 04:30:00",291112,0.09,141.4,4.566,80.3,0,0,863.6174,0,-0.204,3.158,268,12.6,13.12,0,0,50.11,57.86,33.33,35.18
"2017-06-05 04:40:00",291113,0.04,149.5,4.035,81.7,0.2005541,0,863.5742,0,-1.112,3.167,240,12.54,13.08,0.06824902,0.122,50.17,57.86,33.34,35.18
"2017-06-05 04:50:00",291114,0.04,56.95,4.969,68,4.349334,0,863.4879,0,-0.068,3.148,305,12.51,13.11,1.505293,0.332,50.11,57.8,33.33,35.17
"2017-06-05 05:00:00",291115,0.368,56.84,6.45,58.63,9.772721,0,863.5126,0,2.682,3.113,292,12.5,13.14,3.196533,0.33,50.17,57.8,33.34,35.17
"2017-06-05 05:10:00",291116,0.486,39.2,7.314,54.23,16.93449,0,863.6923,0,1.116,3.126,242,12.5,13.14,4.027032,0.24,50.17,57.8,33.34,35.17
"2017-06-05 05:20:00",291117,0.15,212.9,7.704,52.86,27.29808,0,863.703,0,0.395,3.136,250,12.46,13.13,5.073746,0.188,50.17,57.8,33.34,35.17
"2017-06-05 05:30:00",291118,0.562,335.3,5.879,67.45,33.70814,0,863.7062,0,-0.029,3.15,246,12.43,13.12,4.489704,0.133,50.17,57.8,33.34,35.17
"2017-06-05 05:40:00",291119,0.06,93.5,4.917,77.43,42.87634,0,863.706,0,-1.132,3.164,247,12.36,13.05,6.540678,0.151,50.17,57.8,33.34,35.17
"2017-06-05 05:50:00",291120,0.089,212.9,5.297,72.28,72.95657,0,863.7059,0,-1.179,3.153,241,12.34,13.03,13.92624,0.197,50.17,57.8,33.34,35.17
"2017-06-05 06:00:00",291121,0.357,324.6,7.772,55.15,157.975,0,863.7059,0,4.555,3.088,350,12.33,13.03,23.98096,0.163,50.17,57.86,33.34,35.18
"2017-06-05 06:10:00",291122,0.255,101.9,7.935,58.59,82.69035,0,863.7186,0,2.005,3.118,292,12.31,12.97,26.2363,0.392,50.17,57.8,33.34,35.17
"2017-06-05 06:20:00",291123,0.025,152.5,7.539,64.41,57.80651,0,863.7418,0,3.739,3.101,323,12.28,12.94,29.5402,0.548,50.17,57.8,33.34,35.17
"2017-06-05 06:30:00",291124,0.292,318.3,8.35,52.63,103.6597,0,863.9482,0,-3.331,3.163,206,12.29,12.93,32.37456,0.404,50.17,57.8,33.34,35.17
"2017-06-05 06:40:00",291125,0.934,318.6,8.86,50.79,156.8379,0,863.963,0,-33.66,3.461,227,12.21,12.9,32.92749,0.324,50.17,57.8,33.34,35.17
"2017-06-05 06:50:00",291126,0.282,14.37,8.95,52.46,63.68467,0,863.9883,0,-3.324,3.161,242,12.12,12.9,35.65291,0.573,50.22,57.91,33.35,35.2
"2017-06-05 07:00:00",291127,0.556,2.783,9.08,53.3,144.9317,0,864.0302,0,-2.588,3.154,227,12.11,12.89,36.65742,0.329,50.17,57.8,33.34,35.17
"2017-06-05 07:10:00",291128,0.549,4.29,9.22,52.48,80.09122,0,864.1458,0,-5.074,3.177,213,12.11,12.89,37.04787,0.466,50.22,57.8,33.35,35.17
"2017-06-05 07:20:00",291129,0.583,315.7,9.36,51.87,134.5679,0,864.3138,0,2.379,3.103,304,12.12,12.89,41.02825,0.317,50.17,57.8,33.34,35.17
"2017-06-05 07:30:00",291130,0.889,130.1,9.54,53.64,196.5682,0,864.3108,0,-2.493,3.149,211,12.15,12.89,46.17211,0.237,50.17,57.8,33.34,35.17
"2017-06-05 07:40:00",291131,0.936,271.6,9.53,51.77,309.3852,0,864.3595,0,5.988,3.068,256,12.14,12.87,46.89947,0.17,50.17,57.8,33.34,35.17
"2017-06-05 07:50:00",291132,1.07,252.1,9.33,51.81,452.6584,0,864.3022,0,6.087,3.066,311,12.11,12.85,56.22024,0.125,50.17,57.8,33.34,35.17
"2017-06-05 08:00:00",291133,0.924,301.3,9.69,52.08,534.5244,0,864.3674,0,0.309,3.12,429,12.06,12.83,77.37793,0.144,50.17,57.74,33.34,35.16
"2017-06-05 08:10:00",291134,0.669,15.24,10.13,52.02,594.8289,0,864.5295,0,2.101,3.101,271,12.03,12.8,94.06145,0.158,50.22,57.8,33.35,35.17
"2017-06-05 08:20:00",291135,0.623,12.03,10.28,53.28,581.8142,0,864.6243,0,4.24,3.08,253,12.02,12.8,95.14442,0.163,50.17,57.74,33.34,35.16
"2017-06-05 08:30:00",291136,0.255,314.3,10.55,55.12,621.3041,0,864.6264,0,6.784,3.052,328,12,12.8,101.7152,0.163,50.17,57.74,33.34,35.16
"2017-06-05 08:40:00",291137,0.342,353.2,11.02,54.69,716.2712,0,864.6692,0,6.886,3.051,260,11.99,12.8,117.7336,0.164,50.22,57.74,33.35,35.16
"2017-06-05 08:50:00",291138,0.2,60.43,10.94,55.43,645.0457,0,864.7157,0,-33.29,3.443,226,11.98,12.78,103.3755,0.16,50.17,57.74,33.34,35.16
"2017-06-05 09:00:00",291139,0.38,349.7,11.01,56.82,682.038,0,864.799,0,6.778,3.051,253,11.95,12.76,110.3633,0.161,50.17,57.74,33.34,35.16
"2017-06-05 09:10:00",291140,0.474,276.9,11.21,55.6,879.5426,0,864.7909,0,-31.55,3.425,303,11.97,12.73,145.2211,0.165,50.17,57.74,33.34,35.16
"2017-06-05 09:20:00",291141,0.448,289.4,11.34,54.6,930.2394,0,864.7952,0,-0.537,3.12,243,11.93,12.7,152.8369,0.164,50.17,57.74,33.34,35.16
"2017-06-05 09:30:00",291142,0.297,281.4,11.95,53.2,883.5792,0,864.8494,0,-31.53,3.422,228,11.91,12.66,144.1933,0.163,50.17,57.74,33.34,35.16
"2017-06-05 09:40:00",291143,0.41,278.8,11.61,51.68,868.118,0,864.8893,0,-0.18,3.117,317,11.91,12.61,141.0179,0.162,50.17,57.74,33.34,35.16
"2017-06-05 09:50:00",291144,0.441,264.6,11.72,51.11,998.9586,0,864.9041,0,5.463,3.058,253,11.95,12.61,163.3684,0.163,50.17,57.74,33.34,35.16
"2017-06-05 10:00:00",291145,0.397,284.8,12.18,50.01,1039.517,0,864.9651,0,5.122,3.059,270,11.95,12.6,169.4334,0.163,50.17,57.74,33.34,35.16
"2017-06-05 10:10:00",291146,0.448,272.9,12.54,47.89,1086.77,0,865.041,0,6.193,3.049,268,11.9,12.59,177.3281,0.163,50.11,57.74,33.33,35.16
"2017-06-05 10:20:00",291147,0.681,293.2,12.69,46.08,1103.001,0,865.0283,0,2.08,3.085,262,11.92,12.59,180.711,0.164,50.17,57.74,33.34,35.16
"2017-06-05 10:30:00",291148,0.855,242.5,12.72,44.99,1132.802,0,865.043,0,5.507,3.052,358,11.98,12.6,189.1247,0.167,50.11,57.74,33.33,35.16
"2017-06-05 10:40:00",291149,0.79,354.7,13.31,44.64,1064.073,0,865.041,0,0.701,3.098,261,12,12.54,178.7373,0.167,50.17,57.74,33.34,35.16
"2017-06-05 10:50:00",291150,0.597,269.5,13.33,44.51,994.8132,0,865.041,0,-33.82,3.435,280,12.07,12.49,163.0653,0.161,50.11,57.74,33.33,35.16
"2017-06-05 11:00:00",291151,0.693,49.64,13.38,43.01,1112.285,0,865.041,0,4.703,3.058,298,12.12,12.49,184.8364,0.166,50.11,57.68,33.33,35.14
"2017-06-05 11:10:00",291152,0.653,320.6,13.3,42.38,1088.762,0,865.041,0,5.459,3.052,299,12.19,12.49,180.0139,0.165,50.06,57.68,33.31,35.14
"2017-06-05 11:20:00",291153,0.395,292.4,13.34,42.63,967.6956,0,865.041,0,-4.99,3.155,196,12.24,12.49,159.6028,0.156,50.06,57.68,33.31,35.14
"2017-06-05 11:30:00",291154,0.724,288.2,13.25,42.89,1126.618,0,864.9441,0,-2.782,3.132,196,12.29,12.45,189.5035,0.168,50.11,57.68,33.33,35.14
"2017-06-05 11:40:00",291155,0.835,280.5,13.33,42.44,1119.93,0,864.822,0,-0.793,3.114,254,12.4,12.42,190.049,0.17,50.06,57.68,33.31,35.14
"2017-06-05 11:50:00",291156,0.597,273.7,13.33,42.74,1134.334,0,864.8051,0,4.396,3.061,266,12.47,12.42,193.0531,0.17,50.06,57.74,33.31,35.16
"2017-06-05 12:00:00",291157,0.763,268.4,13.61,41.46,1139.457,0,864.8198,0,5.325,3.051,238,12.59,12.41,195.292,0.171,50.06,57.68,33.31,35.14
"2017-06-05 12:10:00",291158,0.656,276.3,14.17,40.83,1031.011,0,864.7903,0,3.797,3.065,346,12.64,12.41,176.1537,0.164,50.06,57.62,33.31,35.13
"2017-06-05 12:20:00",291159,0.689,306.2,14.19,40.54,1026.367,0,864.7903,0,5.264,3.047,290,12.76,12.41,176.2181,0.167,50.06,57.68,33.31,35.14
"2017-06-05 12:30:00",291160,0.727,278.9,14.6,40.15,1036.008,0,864.7819,0,2.422,3.077,389,12.87,12.4,177.7827,0.168,50.01,57.68,33.3,35.14
"2017-06-05 12:40:00",291161,0.652,267.4,14.32,39.2,1089.021,0,864.6177,0,5.901,3.044,263,12.95,12.39,190.2688,0.174,49.95,57.68,33.28,35.14
"2017-06-05 12:50:00",291162,0.596,292,14.59,37.69,1095.697,0,864.6599,0,6.454,3.037,254,13.08,12.39,190.8067,0.174,50.01,57.68,33.3,35.14
"2017-06-05 13:00:00",291163,0.648,319.3,14.76,38.2,1106.262,0,864.6156,0,-0.536,3.1,232,13.21,12.4,191.2916,0.173,50.01,57.68,33.3,35.14
"2017-06-05 13:10:00",291164,0.906,284,14.67,36.56,1084.004,0,864.7714,0,4.798,3.052,274,13.27,12.4,189.7119,0.175,49.9,57.68,33.27,35.14
"2017-06-05 13:20:00",291165,0.77,259,14.53,37.16,1058.545,0,864.7756,0,5.776,3.042,254,13.38,12.41,188.4693,0.178,49.95,57.62,33.28,35.13
"2017-06-05 13:30:00",291166,0.961,274.3,14.19,36.92,1027.164,0,864.7819,0,4.466,3.058,304,13.52,12.4,185.2001,0.18,49.9,57.62,33.27,35.13
"2017-06-05 13:40:00",291167,0.617,252.6,14.22,39.85,870.5524,0,864.7819,0,4.837,3.053,322,13.6,12.41,153.0984,0.164,49.9,57.62,33.27,35.13
"2017-06-05 13:50:00",291168,0.804,253.2,14.68,38.33,1075.294,0,864.7651,0,-36.51,3.453,264,13.69,12.41,193.1857,0.18,49.84,57.62,33.26,35.13
"2017-06-05 14:00:00",291169,0.999,265.1,14.44,39.34,973.8955,0,864.6893,0,-0.211,3.098,268,13.8,12.41,173.6989,0.177,49.84,57.62,33.26,35.13
"2017-06-05 14:10:00",291170,0.627,108.1,14.55,40.1,538.136,0,864.7882,0,-36.75,3.461,220,13.91,12.42,83.60293,0.13,49.84,57.62,33.26,35.13
"2017-06-05 14:20:00",291171,0.628,175.7,13.93,43.77,599.6869,0,864.7924,0,4.245,3.059,321,14,12.41,98.5741,0.153,49.79,57.62,33.24,35.13
"2017-06-05 14:30:00",291172,0.743,285.8,14.28,40.44,988.8687,0,864.7924,0,318,0,0,14.09,12.43,166.4975,0.168,49.84,57.56,33.26,35.12
"2017-06-05 14:40:00",291173,0.804,260.8,14.33,40.17,945.6581,0,864.7946,0,1.588,3.087,319,14.2,12.48,149.9958,0.159,49.79,57.56,33.24,35.12
"2017-06-05 14:50:00",291174,0.825,265.2,13.61,40.94,863.9243,0,864.9714,0,6.594,3.04,255,14.26,12.46,120.8718,0.14,49.73,57.56,33.23,35.12
"2017-06-05 15:00:00",291175,0.812,259.5,13.5,41.89,819.3033,0,864.9967,0,-32.95,3.426,262,14.34,12.45,93.45618,0.114,49.73,57.56,33.23,35.12
"2017-06-05 15:10:00",291176,0.747,265,13.37,43.08,796.036,0,865.0093,0,4.79,3.059,240,14.44,12.45,71.65858,0.09,49.73,57.56,33.23,35.12
"2017-06-05 15:20:00",291177,0.637,241.6,13.71,43.03,754.5267,0,864.9609,0,5.522,3.05,308,14.52,12.42,52.29682,0.069,49.73,57.56,33.23,35.12
"2017-06-05 15:30:00",291178,0.646,10.89,13.9,43.44,233.4619,0,865.0367,0,4.924,3.054,364,14.6,12.48,32.71156,0.201,49.68,57.51,33.22,35.1
"2017-06-05 15:40:00",291179,0.596,244.4,13.54,44.08,105.1779,0,865.043,0,-34.88,3.447,280,14.62,12.55,23.09697,0.254,49.68,57.51,33.22,35.1
"2017-06-05 15:50:00",291180,0.798,75.85,13.57,46.52,85.39172,0,865.1209,0,-1.336,3.116,270,14.68,12.55,23.61975,0.278,49.68,57.51,33.22,35.1
"2017-06-05 16:00:00",291181,0.898,300,13.53,48.16,122.7059,0,865.2484,0,-3.825,3.145,216,14.75,12.53,24.88142,0.207,49.68,57.51,33.22,35.1
"2017-06-05 16:10:00",291182,0.722,279.2,12.84,50.39,104.3763,0,865.1866,0,-2.042,3.127,205,14.84,12.56,21.06804,0.204,49.62,57.51,33.2,35.1
"2017-06-05 16:20:00",291183,0.416,283.9,12.75,51.28,115.8038,0,865.2587,0,-0.894,3.118,232,14.93,12.63,20.03159,0.174,49.68,57.51,33.22,35.1
"2017-06-05 16:30:00",291184,0.539,350.7,12.66,52.09,90.50388,0,865.3183,0,-2.437,3.133,224,15,12.68,17.0358,0.189,49.62,57.51,33.2,35.1
"2017-06-05 16:40:00",291185,0.556,214.8,12.37,54.61,81.02625,0,865.3625,0,5.621,3.056,322,15.06,12.7,14.61925,0.18,49.62,57.51,33.2,35.1
"2017-06-05 16:50:00",291186,0.58,267.3,12.2,54.37,56.87007,0,865.3834,0,-3.611,3.147,195,15.08,12.71,9.503979,0.167,49.57,57.45,33.19,35.09
"2017-06-05 17:00:00",291187,0.417,240.7,12.06,57.17,60.97013,0,865.5286,0,-4.716,3.159,196,15.1,12.71,9.913381,0.162,49.57,57.45,33.19,35.09
"2017-06-05 17:10:00",291188,0.369,256.1,12.03,59.01,70.13187,0,865.6834,0,-1.729,3.13,303,15.11,12.72,11.57324,0.165,49.57,57.45,33.19,35.09
"2017-06-05 17:20:00",291189,0.376,234.5,11.87,61.38,65.92262,0,865.8837,0,-4.794,3.16,186,15.13,12.72,10.33407,0.157,49.51,57.45,33.18,35.09
"2017-06-05 17:30:00",291190,0.428,263.6,11.76,61.94,51.00722,0,865.9196,0,-4.773,3.161,194,15.15,12.76,7.4275,0.144,49.57,57.45,33.19,35.09
"2017-06-05 17:40:00",291191,0.24,228.4,11.48,64.64,35.36862,0,866.1218,0,-4.728,3.162,182,15.17,12.86,4.664925,0.132,49.57,57.45,33.19,35.09
"2017-06-05 17:50:00",291192,0.337,145.5,11.2,65.76,28.15655,0,866.1702,0,-5.502,3.172,180,15.19,12.89,3.497746,0.124,49.51,57.39,33.18,35.07
"2017-06-05 18:00:00",291193,0.485,149.4,10.77,67.51,25.25207,0,866.3829,0,-4.791,3.166,182,15.21,12.89,3.008896,0.119,49.51,57.45,33.18,35.09
"2017-06-05 18:10:00",291194,0.517,186.5,10.71,68.36,21.97421,0,866.3956,0,-5.076,3.17,183,15.23,12.89,2.811839,0.128,49.51,57.45,33.18,35.09
"2017-06-05 18:20:00",291195,0.35,249.3,10.51,69.42,17.95746,0,866.4019,0,-4.822,3.168,197,15.17,12.89,2.466991,0.138,49.46,57.39,33.16,35.07
"2017-06-05 18:30:00",291196,0.482,340.9,10.38,69.49,14.41628,0,866.5978,0,-38.97,3.505,265,15.17,12.87,2.076669,0.144,49.46,57.39,33.16,35.07
"2017-06-05 18:40:00",291197,0.256,302.5,10.08,71.22,10.00257,0,866.6505,0,-4.069,3.164,410,15.16,12.9,1.481711,0.146,49.46,57.45,33.16,35.09
"2017-06-05 18:50:00",291198,0.214,200.3,9.78,73.3,5.608514,0,866.8084,0,-5.781,3.183,204,15.14,12.96,0.9132794,0.161,49.46,57.39,33.16,35.07
"2017-06-05 19:00:00",291199,0.08,5.369,9.43,75.05,1.395251,0,866.899,0,-6.063,3.187,191,15.07,12.97,0.3827437,0.345,49.46,57.39,33.16,35.07
"2017-06-05 19:10:00",291200,0.128,353.3,9,77.2,0,0,866.9874,0,-4.645,3.175,211,15.05,12.97,0,0,49.46,57.39,33.16,35.07
"2017-06-05 19:20:00",291201,0.195,11.84,8.84,78.07,0,0,867.1791,0,-4.253,3.172,206,15.07,12.98,0,0,49.46,57.39,33.16,35.07
"2017-06-05 19:30:00",291202,0.081,125.9,8.7,79.45,0,0,867.3666,0,-4.725,3.178,208,15.01,13.01,0,0,49.41,57.39,33.15,35.07
"2017-06-05 19:40:00",291203,0.055,143.2,8.1,82.8,0,0,867.3708,0,-3.145,3.166,280,15.04,13.1,0,0,49.46,57.39,33.16,35.07
"2017-06-05 19:50:00",291204,0.042,214.2,7.785,85,0,0,867.4066,0,-1.714,3.153,355,14.98,13.2,0,0,49.46,57.39,33.16,35.07
"2017-06-05 20:00:00",291205,0,0,7.596,86.3,0,0,867.4318,0,-1.012,3.147,406,14.99,13.23,0,0,49.46,57.33,33.16,35.06
"2017-06-05 20:10:00",291206,0.01,203.1,7.38,89,0,0,867.6586,0,-0.971,3.149,282,14.99,13.21,0,0,49.46,57.33,33.16,35.06
"2017-06-05 20:20:00",291207,0.062,203.5,7.042,93.4,0,0,867.6711,0,2.015,3.12,385,14.91,13.19,0,0,49.41,57.33,33.15,35.06
"2017-06-05 20:30:00",291208,0.152,194.9,6.756,96.5,0,0,867.8867,0,0.539,3.137,424,14.88,13.16,0,0,49.41,57.33,33.15,35.06
"2017-06-05 20:40:00",291209,0.008,197.3,6.667,100,0,0,868.0814,0,318,0,0,14.83,13.17,0.2501952,0,49.41,57.33,33.15,35.06
"2017-06-05 20:50:00",291210,0.132,190.9,6.454,99.8,0,0,868.238,0,318,0,0,14.82,13.22,0.163006,0,49.46,57.33,33.16,35.06
"2017-06-05 21:00:00",291211,0.036,191,6.417,100,0,0,868.2958,0,-7.102,3.214,191,14.77,13.24,0.4283645,0,49.41,57.27,33.15,35.05
"2017-06-05 21:10:00",291212,0.294,182.9,6.089,100,0,0,868.46,0,-6.093,3.206,216,14.69,13.24,0.1402609,0,49.41,57.27,33.15,35.05
"2017-06-05 21:20:00",291213,0.417,182.5,5.924,100,0,0,868.45,0,-1.721,3.163,363,14.66,13.25,0.2236593,0,49.41,57.27,33.15,35.05
"2017-06-05 21:30:00",291214,0.189,209.7,6.029,100,0,0,868.5096,0,-3.463,3.179,311,14.61,13.3,0.4852271,0,49.41,57.27,33.15,35.05
"2017-06-05 21:40:00",291215,0.068,191.9,6.122,100,0,0,868.5097,0,-5.587,3.201,233,14.61,13.32,0.5420896,0,49.41,57.27,33.15,35.05
"2017-06-05 21:50:00",291216,0.055,192.7,6.014,100,0,0,868.5098,0,-4.223,3.188,259,14.53,13.32,0.4511095,0,49.41,57.27,33.15,35.05
"2017-06-05 22:00:00",291217,0.006,162.7,5.807,100,0,0,868.594,0,-4.426,3.191,298,14.52,13.29,0.3449661,0,49.41,57.27,33.15,35.05
"2017-06-05 22:10:00",291218,0.053,164.6,5.824,100,0,0,868.7626,0,-4.375,3.19,243,14.44,13.26,0.5534621,0,49.41,57.22,33.15,35.03
"2017-06-05 22:20:00",291219,0.227,175.7,5.637,100,0,0,868.7626,0,-3.013,3.178,261,14.44,13.26,0.4586912,0,49.41,57.27,33.15,35.05
"2017-06-05 22:30:00",291220,0.145,178.5,5.744,100,0,0,868.7836,0,-3.264,3.179,252,14.34,13.29,0.602743,0,49.41,57.22,33.15,35.03
"2017-06-05 22:40:00",291221,0.029,178,5.951,100,0,0,869.0048,0,-4.477,3.192,204,14.34,13.31,0.8415657,0,49.41,57.22,33.15,35.03
"2017-06-05 22:50:00",291222,0.23,185.8,5.54,100,0,0,869.0111,0,-4.224,3.189,235,14.28,13.33,0.4359462,0,49.41,57.22,33.15,35.03
"2017-06-05 23:00:00",291223,0.051,191.6,5.916,100,0,0,869.0069,0,-4.35,3.19,214,14.28,13.33,0.8301932,0,49.35,57.22,33.14,35.03
"2017-06-05 23:10:00",291224,0.305,187.4,5.539,100,0,0,869.0469,0,-4.883,3.198,209,14.18,13.33,0.4283645,0,49.41,57.22,33.15,35.03
"2017-06-05 23:20:00",291225,0.395,192.8,5.308,100,0,0,869.1165,0,-5.186,3.201,208,14.18,13.33,0.371502,0,49.35,57.22,33.14,35.03
"2017-06-05 23:30:00",291226,0.274,193.4,5.428,100,0,0,869.1165,0,-4.377,3.192,203,14.15,13.33,0.5724163,0,49.41,57.22,33.15,35.03
"2017-06-05 23:40:00",291227,0.102,192.7,5.327,100,0,0,869.0807,0,-4.61,3.196,202,14.1,13.33,0.4852324,0,49.35,57.16,33.14,35.02
"2017-06-05 23:50:00",291228,0.35,185.7,5.067,100,0,0,869.009,0,-4.896,3.2,204,14.04,13.34,0.3563585,0,49.41,57.16,33.15,35.02
